Location: Unspecified
(0.0000°N, 0.0000°E)
Time: 11:20:55
(UTC+00:00)

Courier 1B Rocket - Pass Details

Date: 24 November 2019
Orbit: 920 x 1202 km, 28.2° (Epoch: 13 December)

Event Time Altitude Azimuth Distance (km) Brightness Sun altitude
Rises 07:22:43 0° 224° (SW) 3,630 7.8 22.4°
Reaches altitude 10° 07:25:40 10° 215° (SW) 2,652 7.2 23.1°
Maximum altitude 07:31:18 33° 152° (SSE) 1,496 7.1 24.4°
Drops below altitude 10° 07:36:49 10° 89° (E) 2,603 8.6 25.7°
Sets 07:39:41 0° 79° (E) 3,553 8.8 26.3°
